Date String (YYYY-MM-DD hh:mm:ss) UTC,Instrument flags,Ambient pressure (hPa),Sample flow (lpm),Bypass flow (lpm),Sample temperature (°C),Ambient temperature (°C),ASC tube jacket temperature (°C),LED temperature (°C),Box temperature (°C),Sample RH (%),Span deviation,Mass concentration (μg/m³),Mass concentration (μg/m³),Mass concentration (μg/m³)
DateTimeUTC,F1_M11,P_M11,Q1_M11,Q2_M11,T1_M11,T2_M11,T3_M11,T4_M11,T5_M11,U1_M11,ZSPAN_M11,X0_M11,X2_M11,X1_M11
2022-09-04 23:00:00,,0827.5,5.01,0.00,29.5,27.1,00.0,38.1,31.2,14.9,0000.0,0012.01,0006.78,0006.09
2022-09-04 23:01:00,,0827.5,5.00,0.00,29.5,27.4,00.0,38.1,31.2,14.7,0000.0,0011.71,0006.75,0006.09
2022-09-04 23:02:00,,0827.5,5.00,0.00,29.5,27.7,00.0,38.1,31.3,14.9,0000.0,0011.64,0006.71,0006.07
2022-09-04 23:03:00,,0827.5,5.01,0.00,29.5,28.0,00.0,38.1,31.4,14.8,0000.0,0011.45,0006.69,0006.08
2022-09-04 23:04:00,,0827.5,4.98,0.00,29.6,28.3,00.0,38.1,31.5,14.5,0000.0,0011.70,0006.67,0006.08
2022-09-04 23:05:00,,0827.5,5.00,0.00,29.6,28.0,00.0,38.1,31.5,14.3,0000.0,0011.54,0006.68,0006.08
2022-09-04 23:06:00,,0827.5,5.01,0.00,29.6,26.9,00.0,38.1,31.3,14.4,0000.0,0017.51,0006.75,0006.09
2022-09-04 23:07:00,,0827.5,5.00,0.00,29.5,26.7,00.0,38.1,31.3,14.4,0000.0,0020.70,0006.81,0006.10
2022-09-04 23:08:00,,0827.5,4.99,0.00,29.5,27.0,00.0,38.1,31.3,14.5,0000.0,0020.90,0006.84,0006.11
2022-09-04 23:09:00,,0827.5,5.00,0.00,29.5,27.3,00.0,38.1,31.2,14.4,0000.0,0020.95,0006.86,0006.10
2022-09-04 23:10:00,,0827.6,5.00,0.00,29.5,27.6,00.0,38.1,31.3,14.2,0000.0,0020.98,0006.88,0006.12
2022-09-04 23:11:00,,0827.5,5.00,0.00,29.5,27.9,00.0,38.1,31.4,14.2,0000.0,0020.93,0006.88,0006.11
2022-09-04 23:12:00,,0827.6,5.01,0.00,29.6,28.2,00.0,38.1,31.4,14.1,0000.0,0020.85,0006.92,0006.12
2022-09-04 23:13:00,,0827.5,4.98,0.00,29.6,27.9,00.0,38.1,31.5,14.1,0000.0,0020.52,0006.93,0006.13
2022-09-04 23:14:00,,0827.6,5.00,0.00,29.6,26.8,00.0,38.1,31.3,14.4,0000.0,0020.41,0006.92,0006.13
2022-09-04 23:15:00,,0827.5,5.01,0.00,29.5,26.6,00.0,38.1,31.3,14.6,0000.0,0020.13,0006.93,0006.13
2022-09-04 23:16:00,,0827.5,5.01,0.00,29.5,27.0,00.0,38.1,31.3,14.6,0000.0,0021.16,0006.97,0006.15
2022-09-04 23:17:00,,0827.5,4.99,0.00,29.5,27.3,00.0,38.1,31.2,14.3,0000.0,0015.26,0006.91,0006.15
2022-09-04 23:18:00,,0827.5,5.00,0.00,29.5,27.6,00.0,38.1,31.2,14.4,0000.0,0012.89,0006.89,0006.14
2022-09-04 23:19:00,,0827.4,5.01,0.00,29.5,27.9,00.0,38.1,31.3,14.3,0000.0,0012.83,0006.88,0006.15
2022-09-04 23:20:00,,0827.5,5.01,0.00,29.5,28.2,00.0,38.1,31.4,14.2,0000.0,0012.58,0006.83,0006.16
2022-09-04 23:21:00,,0827.4,4.98,0.00,29.6,27.9,00.0,38.1,31.4,14.0,0000.0,0012.94,0006.85,0006.17
2022-09-04 23:22:00,,0827.4,5.00,0.00,29.5,26.8,00.0,38.1,31.3,14.0,0000.0,0013.63,0006.87,0006.19
2022-09-04 23:23:00,,0827.4,5.00,0.00,29.5,26.6,00.0,38.1,31.3,14.0,0000.0,0013.67,0006.89,0006.21
2022-09-04 23:24:00,,0827.4,4.99,0.00,29.5,26.9,00.0,38.1,31.3,13.9,0000.0,0013.70,0006.90,0006.24
2022-09-04 23:25:00,,0827.4,5.01,0.00,29.5,27.2,00.0,38.1,31.2,13.9,0000.0,0013.86,0006.94,0006.26
2022-09-04 23:26:00,,0827.4,5.00,0.00,29.5,27.6,00.0,38.1,31.2,14.1,0000.0,0014.22,0006.94,0006.27
2022-09-04 23:27:00,,0827.4,5.00,0.00,29.5,27.9,00.0,38.1,31.3,14.0,0000.0,0013.33,0006.90,0006.25
2022-09-04 23:28:00,,0827.4,4.99,0.00,29.5,28.1,00.0,38.1,31.4,14.1,0000.0,0013.61,0006.89,0006.25
2022-09-04 23:29:00,,0827.4,5.01,0.00,29.6,28.3,00.0,38.1,31.5,14.0,0000.0,0013.49,0006.87,0006.25
2022-09-04 23:30:00,,0827.4,4.98,0.00,29.6,27.4,00.0,38.1,31.4,13.9,0000.0,0013.15,0006.88,0006.27
2022-09-04 23:31:00,,0827.4,5.00,0.00,29.5,26.6,00.0,38.1,31.3,13.9,0000.0,0013.07,0006.89,0006.29
2022-09-04 23:32:00,,0827.4,5.01,0.00,29.5,26.8,00.0,38.1,31.3,14.1,0000.0,0012.79,0006.91,0006.28
2022-09-04 23:33:00,,0827.4,5.01,0.00,29.5,27.1,00.0,38.1,31.2,14.0,0000.0,0012.09,0006.91,0006.28
2022-09-04 23:34:00,,0827.4,5.00,0.00,29.5,27.4,00.0,38.1,31.2,13.9,0000.0,0011.90,0006.91,0006.27
2022-09-04 23:35:00,,0827.3,5.01,0.00,29.5,27.7,00.0,38.1,31.3,14.0,0000.0,0012.02,0006.92,0006.25
2022-09-04 23:36:00,,0827.4,4.99,0.00,29.5,28.0,00.0,38.1,31.3,14.2,0000.0,0012.26,0006.89,0006.24
2022-09-04 23:37:00,,0827.3,5.01,0.00,29.6,28.3,00.0,38.1,31.4,14.3,0000.0,0012.25,0006.89,0006.25
2022-09-04 23:38:00,,0827.3,5.00,0.00,29.6,28.0,00.0,38.1,31.5,14.2,0000.0,0012.29,0006.92,0006.26
2022-09-04 23:39:00,,0827.3,5.00,0.00,29.6,26.9,00.0,38.1,31.4,14.4,0000.0,0012.11,0006.93,0006.29
2022-09-04 23:40:00,,0827.3,4.99,0.00,29.5,26.7,00.0,38.1,31.3,14.6,0000.0,0011.93,0006.95,0006.29
2022-09-04 23:41:00,,0827.2,4.99,0.00,29.5,27.0,00.0,38.1,31.3,14.5,0000.0,0011.92,0006.92,0006.28
2022-09-04 23:42:00,,0827.2,5.01,0.00,29.5,27.3,00.0,38.1,31.2,14.9,0000.0,0012.25,0006.94,0006.28
2022-09-04 23:43:00,,0827.3,5.00,0.00,29.5,27.6,00.0,38.1,31.2,14.9,0000.0,0012.63,0006.90,0006.27
2022-09-04 23:44:00,,0827.3,5.00,0.00,29.5,27.9,00.0,38.1,31.3,15.2,0000.0,0013.12,0006.93,0006.27
2022-09-04 23:45:00,,0827.3,5.00,0.00,29.5,28.1,00.0,38.1,31.4,15.3,0000.0,0014.08,0006.94,0006.28
2022-09-04 23:46:00,,0827.3,5.01,0.00,29.6,28.3,00.0,38.1,31.5,15.2,0000.0,0014.35,0006.91,0006.29
2022-09-04 23:47:00,,0827.3,5.00,0.00,29.6,27.5,00.0,38.2,31.5,15.5,0000.0,0013.93,0006.91,0006.30
2022-09-04 23:48:00,,0827.3,5.00,0.00,29.5,26.6,00.0,38.1,31.3,15.8,0000.0,0013.72,0006.92,0006.29
2022-09-04 23:49:00,,0827.3,5.00,0.00,29.5,26.7,00.0,38.1,31.3,15.8,0000.0,0015.05,0006.95,0006.29
2022-09-04 23:50:00,,0827.3,5.01,0.00,29.5,27.0,00.0,38.1,31.2,15.7,0000.0,0014.79,0006.94,0006.28
2022-09-04 23:51:00,,0827.4,5.00,0.00,29.5,27.4,00.0,38.1,31.2,15.8,0000.0,0014.35,0006.88,0006.27
2022-09-04 23:52:00,,0827.4,5.00,0.00,29.5,27.7,00.0,38.1,31.3,15.9,0000.0,0014.49,0006.91,0006.24
2022-09-04 23:53:00,,0827.4,5.00,0.00,29.5,28.0,00.0,38.1,31.3,16.0,0000.0,0014.58,0006.94,0006.20
2022-09-04 23:54:00,,0827.4,5.00,0.00,29.6,28.2,00.0,38.1,31.4,15.7,0000.0,0014.49,0006.96,0006.17
2022-09-04 23:55:00,,0827.4,4.99,0.00,29.6,28.1,00.0,38.2,31.5,15.5,0000.0,0014.47,0006.93,0006.13
2022-09-04 23:56:00,,0827.3,5.01,0.00,29.6,26.9,00.0,38.2,31.3,15.5,0000.0,0014.63,0006.92,0006.09
2022-09-04 23:57:00,,0827.3,5.00,0.00,29.5,26.6,00.0,38.1,31.3,15.6,0000.0,0014.18,0006.89,0006.05
2022-09-04 23:58:00,,0827.3,5.01,0.00,29.5,26.9,00.0,38.1,31.3,15.7,0000.0,0014.58,0006.87,0006.01
2022-09-04 23:59:00,,0827.2,4.99,0.00,29.5,27.2,00.0,38.1,31.2,15.8,0000.0,0014.51,0006.82,0005.98
